Location: ????????
(48.4751°N, 37.6926°E)
Time: 20:58:55
(UTC+00:00)

PSLV R/B - Pass Details

Date: 20 January 2021
Orbit: 567 x 598 km, 98.2° (Epoch: 02 March)

Event Time Altitude Azimuth Distance (km) Brightness Sun altitude
Exits shadow 16:06:26 21° 20° (NNE) 1,360 5.5 -19.0°
Maximum altitude 16:09:11 75° 102° (ESE) 625 3.8 -19.5°
Drops below altitude 10° 16:13:24 10° 189° (S) 1,934 6.8 -20.2°
Sets 16:15:33 0° 191° (SSW) 2,830 7.7 -20.5°
